Genmar Spyridon — V7BY9 — position and weather

sailwx.info

Track history (hours):
 
Tides and Currents Weather Stations Pressure Air Temp Water Temp Dewpoint Dewpoint Depression Visibility Wind Speed Wind Dir Waves Ship Positions

Genmar Spyridon

Last reported at 2014-Oct-02 21:14 UTC. Time now 2014-Oct-26 00:25 UTC.
Position N 50°16' W 001°32'.
Warning: this ship's position is 23 days out of date.

Length 274 m; draft 9 m.

Type: Tanker. MMSI: 538001404.

Date/timePositionNaut miles runAvg speedWind from/ knotsBaromVisibWave heightAir tempDewpointWater temp
2014-Oct-02 21:14N 50°16' W 001°32'5815.2
2014-Oct-02 17:25N 50°31' W 000°04'1314.1
2014-Oct-02 16:30N 50°34' E 000°16'1313.4
2014-Oct-02 15:33N 50°38' E 000°35'1313.4
2014-Oct-02 14:33N 50°46' E 000°52'1413.9
2014-Oct-02 13:32N 50°55' E 001°10'1515.4
2014-Oct-02 12:34N 51°04' E 001°28'1616.0
2014-Oct-02 11:34N 51°15' E 001°47'1514.9
2014-Oct-02 10:34N 51°28' E 001°58'1413.9
2014-Oct-02 09:34N 51°39' E 002°13'17213.1
2014-Oct-01 20:24N 54°04' E 004°47'1213.8
2014-Oct-01 19:33N 54°05' E 005°06'1414.2
2014-Oct-01 18:33N 54°07' E 005°31'5513.8
2014-Oct-01 14:33N 54°12' E 007°04'1212.2
2014-Oct-01 13:34N 54°11' E 007°25'9 8.8
2014-Oct-01 12:34N 54°02' E 007°30'0 0.1
2014-Oct-01 11:28N 54°03' E 007°30'0 0.1
2014-Oct-01 10:31N 54°03' E 007°30'0 0.0
2014-Oct-01 09:31N 54°03' E 007°30'0 0.1
2014-Oct-01 08:31N 54°03' E 007°29'0 0.0
2014-Oct-01 07:19N 54°03' E 007°29'0 0.0
2014-Oct-01 06:31N 54°03' E 007°29'0 0.0
2014-Oct-01 05:31N 54°03' E 007°29'0 0.0
2014-Oct-01 04:31N 54°03' E 007°30'0 0.1
2014-Oct-01 03:22N 54°03' E 007°30'0 0.0
2014-Oct-01 02:31N 54°03' E 007°30'0 0.0
2014-Oct-01 01:25N 54°03' E 007°30'0 0.0
2014-Oct-01 00:31N 54°03' E 007°30'0 0.0
2014-Sep-30 23:22N 54°03' E 007°30'0 0.0
2014-Sep-30 22:25N 54°03' E 007°30'0 0.0
2014-Sep-30 21:31N 54°03' E 007°30'0 0.1
2014-Sep-30 20:25N 54°03' E 007°30'0 0.1
2014-Sep-30 19:28N 54°03' E 007°29'0 0.0
2014-Sep-30 18:25N 54°03' E 007°29'0 0.0
2014-Sep-30 17:31N 54°03' E 007°30'0 0.0
2014-Sep-30 16:25N 54°03' E 007°30'0 0.1
2014-Sep-30 15:25N 54°03' E 007°30'0 0.0
2014-Sep-30 14:25N 54°03' E 007°30'0 0.0
2014-Sep-30 13:28N 54°03' E 007°30'0 0.0
2014-Sep-30 12:31N 54°03' E 007°30'0 0.0
2014-Sep-30 11:31N 54°03' E 007°30'0 0.0
2014-Sep-30 10:13N 54°03' E 007°30'0 0.0
2014-Sep-30 09:28N 54°03' E 007°30'0 0.1
2014-Sep-30 08:31N 54°03' E 007°30'0 0.1
2014-Sep-30 07:31N 54°03' E 007°29'0 0.1
2014-Sep-30 06:31N 54°03' E 007°29'0 0.3
2014-Sep-30 05:31N 54°02' E 007°30'7 7.1
2014-Sep-30 04:33N 54°02' E 007°41'1312.7
2014-Sep-30 03:33N 54°02' E 008°03'1313.1
2014-Sep-30 02:33N 53°59' E 008°25'1211.7
2014-Sep-30 01:34N 53°53' E 008°42'1010.0
2014-Sep-30 00:33N 53°51' E 008°59'7 7.2
2014-Sep-29 23:33N 53°53' E 009°10'0 0.0
2014-Sep-28 18:33N 53°53' E 009°10'0 0.0
2014-Sep-28 17:33N 53°53' E 009°10'3 3.3
2014-Sep-28 16:31N 53°52' E 009°05'1111.8
2014-Sep-28 15:33N 53°51' E 008°45'1312.6
2014-Sep-28 14:33N 53°59' E 008°28'1313.3
2014-Sep-28 13:33N 53°59' E 008°06'3 2.7
2014-Sep-28 12:33N 54°00' E 008°02'5 4.6
2014-Sep-28 11:33N 54°03' E 007°55'8 7.6
2014-Sep-28 10:33N 54°05' E 007°42'7 7.2
2014-Sep-28 09:33N 54°02' E 007°31'0 0.1
2014-Sep-28 08:30N 54°02' E 007°31'0 0.1
2014-Sep-28 07:33N 54°02' E 007°31'0 0.1
2014-Sep-28 06:30N 54°02' E 007°31'0 0.0
2014-Sep-28 05:21N 54°02' E 007°31'0 0.0
2014-Sep-28 04:30N 54°02' E 007°31'0 0.1
2014-Sep-28 03:24N 54°02' E 007°31'0 0.1
2014-Sep-28 02:33N 54°02' E 007°31'0 0.0
2014-Sep-28 01:34N 54°02' E 007°31'0 0.0
2014-Sep-28 00:29N 54°02' E 007°31'0 0.0
2014-Sep-27 23:29N 54°02' E 007°31'0 0.0
2014-Sep-27 22:27N 54°02' E 007°31'0 0.0
2014-Sep-27 21:33N 54°02' E 007°31'0 0.0
2014-Sep-27 20:33N 54°02' E 007°31'0 0.0
2014-Sep-27 19:33N 54°02' E 007°31'0 0.2
2014-Sep-27 18:33N 54°02' E 007°31'0 0.1
2014-Sep-27 17:27N 54°02' E 007°31'0 0.0
2014-Sep-27 16:30N 54°02' E 007°31'0 0.1
2014-Sep-27 15:33N 54°02' E 007°31'0 0.2
2014-Sep-27 14:33N 54°02' E 007°31'0 0.0
2014-Sep-27 13:33N 54°02' E 007°31'0 0.0
2014-Sep-27 12:33N 54°02' E 007°31'0 0.0
2014-Sep-27 11:33N 54°02' E 007°31'0 0.0
2014-Sep-27 10:26N 54°02' E 007°31'0 0.0
2014-Sep-27 09:20N 54°02' E 007°31'0 0.0
2014-Sep-27 08:32N 54°02' E 007°31'0 0.0
2014-Sep-27 07:32N 54°02' E 007°31'0 0.0
2014-Sep-27 06:29N 54°02' E 007°31'0 0.1
2014-Sep-27 05:20N 54°02' E 007°31'0 0.0
2014-Sep-27 04:32N 54°02' E 007°31'0 0.0
2014-Sep-27 03:26N 54°02' E 007°31'0 0.1
2014-Sep-27 02:32N 54°02' E 007°31'0 0.0
2014-Sep-27 01:32N 54°02' E 007°31'0 0.0
2014-Sep-27 00:29N 54°02' E 007°31'0 0.0
2014-Sep-26 23:32N 54°02' E 007°31'0 0.0
2014-Sep-26 22:26N 54°02' E 007°31'0 0.1
2014-Sep-26 21:29N 54°02' E 007°31'0 0.0
2014-Sep-26 20:17N 54°02' E 007°31'0 0.0
2014-Sep-26 19:32N 54°02' E 007°31'0 0.0
2014-Sep-26 18:29N 54°02' E 007°31'0 0.0
2014-Sep-26 17:29N 54°02' E 007°31'0 0.0
2014-Sep-26 16:32N 54°02' E 007°31'0 0.1
2014-Sep-26 15:29N 54°02' E 007°31'0 0.0
2014-Sep-26 14:32N 54°02' E 007°31'0 0.1
2014-Sep-26 13:23N 54°02' E 007°31'0 0.1
2014-Sep-26 12:23N 54°02' E 007°31'0 0.0
2014-Sep-26 11:26N 54°02' E 007°31'0 0.0
2014-Sep-26 10:26N 54°02' E 007°31'0 0.0
2014-Sep-26 09:29N 54°02' E 007°31'0 0.0
2014-Sep-26 08:32N 54°02' E 007°31'0 0.0
2014-Sep-26 07:29N 54°02' E 007°31'0 0.1
2014-Sep-26 06:29N 54°02' E 007°31'0 0.1
2014-Sep-26 05:26N 54°02' E 007°31'0 0.0
2014-Sep-26 04:29N 54°02' E 007°31'0 0.1
2014-Sep-26 03:26N 54°02' E 007°31'0 0.0
2014-Sep-26 02:32N 54°02' E 007°31'0 0.0
2014-Sep-26 01:32N 54°02' E 007°31'0 0.1
2014-Sep-26 00:23N 54°02' E 007°31'0 0.0
2014-Sep-25 23:32N 54°02' E 007°31'0 0.0
2014-Sep-25 22:32N 54°02' E 007°31'0 0.0
2014-Sep-25 21:32N 54°02' E 007°31'0 0.0
2014-Sep-25 20:29N 54°02' E 007°31'0 0.0
2014-Sep-25 19:29N 54°02' E 007°31'0 0.0
2014-Sep-25 18:29N 54°02' E 007°31'0 0.0
2014-Sep-25 17:32N 54°02' E 007°31'0 0.0
2014-Sep-25 16:26N 54°02' E 007°31'0 0.0
2014-Sep-25 15:17N 54°02' E 007°31'0 0.0
2014-Sep-25 14:32N 54°02' E 007°31'0 0.0
2014-Sep-25 13:32N 54°02' E 007°31'0 0.1
2014-Sep-25 12:29N 54°02' E 007°31'0 0.1
2014-Sep-25 11:32N 54°02' E 007°31'0 0.1
2014-Sep-25 10:32N 54°02' E 007°31'0 0.0
2014-Sep-25 09:32N 54°02' E 007°31'0 0.0
2014-Sep-25 08:26N 54°02' E 007°31'0 0.1
2014-Sep-25 07:29N 54°02' E 007°31'0 0.0
2014-Sep-25 06:32N 54°02' E 007°31'0 0.0
2014-Sep-25 05:32N 54°02' E 007°31'0 0.0
2014-Sep-25 04:23N 54°02' E 007°31'0 0.0
2014-Sep-25 03:29N 54°02' E 007°31'0 0.0
2014-Sep-25 02:26N 54°02' E 007°31'0 0.1
2014-Sep-25 01:29N 54°02' E 007°31'0 0.0
2014-Sep-25 00:29N 54°02' E 007°31'0 0.0
2014-Sep-24 23:29N 54°02' E 007°31'0 0.0
2014-Sep-24 22:29N 54°02' E 007°31'0 0.0
2014-Sep-24 21:26N 54°02' E 007°31'0 0.0
2014-Sep-24 20:32N 54°02' E 007°31'0 0.0
2014-Sep-24 19:26N 54°02' E 007°31'0 0.0
2014-Sep-24 18:26N 54°02' E 007°31'0 0.1
2014-Sep-24 17:29N 54°02' E 007°31'0 0.2
2014-Sep-24 16:29N 54°02' E 007°31'0 0.1
2014-Sep-24 15:26N 54°02' E 007°31'0 0.0
2014-Sep-24 14:32N 54°02' E 007°31'0 0.0
2014-Sep-24 13:17N 54°02' E 007°31'0 0.1
2014-Sep-24 12:29N 54°02' E 007°31'0 0.0
2014-Sep-24 11:32N 54°02' E 007°31'0 0.0
2014-Sep-24 10:17N 54°02' E 007°31'0 0.0
2014-Sep-24 09:26N 54°02' E 007°31'0 0.0
2014-Sep-24 08:26N 54°02' E 007°31'0 0.0
2014-Sep-24 07:29N 54°02' E 007°31'0 0.0
2014-Sep-24 06:29N 54°02' E 007°31'0 0.0
2014-Sep-24 05:23N 54°02' E 007°31'0 0.1
2014-Sep-24 04:32N 54°02' E 007°31'0 0.0
2014-Sep-24 03:32N 54°02' E 007°31'0 0.0
2014-Sep-24 02:20N 54°02' E 007°31'0 0.0
2014-Sep-24 01:32N 54°02' E 007°31'0 0.0
2014-Sep-24 00:29N 54°02' E 007°31'0 0.0
2014-Sep-23 23:20N 54°02' E 007°31'0 0.0
2014-Sep-23 22:29N 54°02' E 007°31'0 0.0
2014-Sep-23 21:29N 54°02' E 007°31'0 0.0
2014-Sep-23 20:32N 54°02' E 007°31'0 0.0
2014-Sep-23 19:26N 54°02' E 007°31'0 0.0
2014-Sep-23 18:32N 54°02' E 007°31'0 0.0
2014-Sep-23 17:29N 54°02' E 007°31'0 0.0
2014-Sep-23 16:32N 54°02' E 007°31'0 0.1
2014-Sep-23 15:32N 54°02' E 007°31'0 0.1
2014-Sep-23 14:32N 54°02' E 007°31'0 0.0
2014-Sep-23 13:29N 54°02' E 007°31'0 0.1
2014-Sep-23 11:26N 54°02' E 007°31'0 0.1
2014-Sep-23 10:29N 54°02' E 007°31'0 0.1
2014-Sep-23 09:32N 54°02' E 007°31'0 0.0
2014-Sep-23 08:32N 54°02' E 007°31'0 0.0
2014-Sep-23 07:20N 54°02' E 007°31'0 0.0
2014-Sep-23 06:26N 54°02' E 007°31'0 0.1
2014-Sep-23 05:32N 54°02' E 007°31'0 0.1
2014-Sep-23 04:23N 54°02' E 007°31'0 0.1
2014-Sep-23 03:29N 54°02' E 007°31'0 0.0
2014-Sep-23 02:26N 54°02' E 007°31'0 0.0
2014-Sep-23 01:32N 54°02' E 007°31'0 0.1
2014-Sep-23 00:29N 54°02' E 007°31'0 0.0
2014-Sep-22 23:32N 54°02' E 007°31'0 0.0
2014-Sep-22 22:26N 54°02' E 007°31'0 0.0
2014-Sep-22 21:29N 54°02' E 007°31'  
Track history (hours):
 
Tides and Currents Weather Stations Pressure Air Temp Water Temp Dewpoint Dewpoint Depression Visibility Wind Speed Wind Dir Waves Ship Positions

Genmar Spyridon

Last reported at 2014-Oct-02 21:14 UTC. Time now 2014-Oct-26 00:25 UTC.
Position N 50°16' W 001°32'.
Warning: this ship's position is 23 days out of date.

Length 274 m; draft 9 m.

Type: Tanker. MMSI: 538001404.

Date/timePositionNaut miles runAvg speedWind from/ knotsBaromVisibWave heightAir tempDewpointWater temp
2014-Oct-02 21:14N 50°16' W 001°32'5815.2
2014-Oct-02 17:25N 50°31' W 000°04'1314.1
2014-Oct-02 16:30N 50°34' E 000°16'1313.4
2014-Oct-02 15:33N 50°38' E 000°35'1313.4
2014-Oct-02 14:33N 50°46' E 000°52'1413.9
2014-Oct-02 13:32N 50°55' E 001°10'1515.4
2014-Oct-02 12:34N 51°04' E 001°28'1616.0
2014-Oct-02 11:34N 51°15' E 001°47'1514.9
2014-Oct-02 10:34N 51°28' E 001°58'1413.9
2014-Oct-02 09:34N 51°39' E 002°13'17213.1
2014-Oct-01 20:24N 54°04' E 004°47'1213.8
2014-Oct-01 19:33N 54°05' E 005°06'1414.2
2014-Oct-01 18:33N 54°07' E 005°31'5513.8
2014-Oct-01 14:33N 54°12' E 007°04'1212.2
2014-Oct-01 13:34N 54°11' E 007°25'9 8.8
2014-Oct-01 12:34N 54°02' E 007°30'0 0.1
2014-Oct-01 11:28N 54°03' E 007°30'0 0.1
2014-Oct-01 10:31N 54°03' E 007°30'0 0.0
2014-Oct-01 09:31N 54°03' E 007°30'0 0.1
2014-Oct-01 08:31N 54°03' E 007°29'0 0.0
2014-Oct-01 07:19N 54°03' E 007°29'0 0.0
2014-Oct-01 06:31N 54°03' E 007°29'0 0.0
2014-Oct-01 05:31N 54°03' E 007°29'0 0.0
2014-Oct-01 04:31N 54°03' E 007°30'0 0.1
2014-Oct-01 03:22N 54°03' E 007°30'0 0.0
2014-Oct-01 02:31N 54°03' E 007°30'0 0.0
2014-Oct-01 01:25N 54°03' E 007°30'0 0.0
2014-Oct-01 00:31N 54°03' E 007°30'0 0.0
2014-Sep-30 23:22N 54°03' E 007°30'0 0.0
2014-Sep-30 22:25N 54°03' E 007°30'0 0.0
2014-Sep-30 21:31N 54°03' E 007°30'0 0.1
2014-Sep-30 20:25N 54°03' E 007°30'0 0.1
2014-Sep-30 19:28N 54°03' E 007°29'0 0.0
2014-Sep-30 18:25N 54°03' E 007°29'0 0.0
2014-Sep-30 17:31N 54°03' E 007°30'0 0.0
2014-Sep-30 16:25N 54°03' E 007°30'0 0.1
2014-Sep-30 15:25N 54°03' E 007°30'0 0.0
2014-Sep-30 14:25N 54°03' E 007°30'0 0.0
2014-Sep-30 13:28N 54°03' E 007°30'0 0.0
2014-Sep-30 12:31N 54°03' E 007°30'0 0.0
2014-Sep-30 11:31N 54°03' E 007°30'0 0.0
2014-Sep-30 10:13N 54°03' E 007°30'0 0.0
2014-Sep-30 09:28N 54°03' E 007°30'0 0.1
2014-Sep-30 08:31N 54°03' E 007°30'0 0.1
2014-Sep-30 07:31N 54°03' E 007°29'0 0.1
2014-Sep-30 06:31N 54°03' E 007°29'0 0.3
2014-Sep-30 05:31N 54°02' E 007°30'7 7.1
2014-Sep-30 04:33N 54°02' E 007°41'1312.7
2014-Sep-30 03:33N 54°02' E 008°03'1313.1
2014-Sep-30 02:33N 53°59' E 008°25'1211.7
2014-Sep-30 01:34N 53°53' E 008°42'1010.0
2014-Sep-30 00:33N 53°51' E 008°59'7 7.2
2014-Sep-29 23:33N 53°53' E 009°10'0 0.0
2014-Sep-28 18:33N 53°53' E 009°10'0 0.0
2014-Sep-28 17:33N 53°53' E 009°10'3 3.3
2014-Sep-28 16:31N 53°52' E 009°05'1111.8
2014-Sep-28 15:33N 53°51' E 008°45'1312.6
2014-Sep-28 14:33N 53°59' E 008°28'1313.3
2014-Sep-28 13:33N 53°59' E 008°06'3 2.7
2014-Sep-28 12:33N 54°00' E 008°02'5 4.6
2014-Sep-28 11:33N 54°03' E 007°55'8 7.6
2014-Sep-28 10:33N 54°05' E 007°42'7 7.2
2014-Sep-28 09:33N 54°02' E 007°31'0 0.1
2014-Sep-28 08:30N 54°02' E 007°31'0 0.1
2014-Sep-28 07:33N 54°02' E 007°31'0 0.1
2014-Sep-28 06:30N 54°02' E 007°31'0 0.0
2014-Sep-28 05:21N 54°02' E 007°31'0 0.0
2014-Sep-28 04:30N 54°02' E 007°31'0 0.1
2014-Sep-28 03:24N 54°02' E 007°31'0 0.1
2014-Sep-28 02:33N 54°02' E 007°31'0 0.0
2014-Sep-28 01:34N 54°02' E 007°31'0 0.0
2014-Sep-28 00:29N 54°02' E 007°31'0 0.0
2014-Sep-27 23:29N 54°02' E 007°31'0 0.0
2014-Sep-27 22:27N 54°02' E 007°31'0 0.0
2014-Sep-27 21:33N 54°02' E 007°31'0 0.0
2014-Sep-27 20:33N 54°02' E 007°31'0 0.0
2014-Sep-27 19:33N 54°02' E 007°31'0 0.2
2014-Sep-27 18:33N 54°02' E 007°31'0 0.1
2014-Sep-27 17:27N 54°02' E 007°31'0 0.0
2014-Sep-27 16:30N 54°02' E 007°31'0 0.1
2014-Sep-27 15:33N 54°02' E 007°31'0 0.2
2014-Sep-27 14:33N 54°02' E 007°31'0 0.0
2014-Sep-27 13:33N 54°02' E 007°31'0 0.0
2014-Sep-27 12:33N 54°02' E 007°31'0 0.0
2014-Sep-27 11:33N 54°02' E 007°31'0 0.0
2014-Sep-27 10:26N 54°02' E 007°31'0 0.0
2014-Sep-27 09:20N 54°02' E 007°31'0 0.0
2014-Sep-27 08:32N 54°02' E 007°31'0 0.0
2014-Sep-27 07:32N 54°02' E 007°31'0 0.0
2014-Sep-27 06:29N 54°02' E 007°31'0 0.1
2014-Sep-27 05:20N 54°02' E 007°31'0 0.0
2014-Sep-27 04:32N 54°02' E 007°31'0 0.0
2014-Sep-27 03:26N 54°02' E 007°31'0 0.1
2014-Sep-27 02:32N 54°02' E 007°31'0 0.0
2014-Sep-27 01:32N 54°02' E 007°31'0 0.0
2014-Sep-27 00:29N 54°02' E 007°31'0 0.0
2014-Sep-26 23:32N 54°02' E 007°31'0 0.0
2014-Sep-26 22:26N 54°02' E 007°31'0 0.1
2014-Sep-26 21:29N 54°02' E 007°31'0 0.0
2014-Sep-26 20:17N 54°02' E 007°31'0 0.0
2014-Sep-26 19:32N 54°02' E 007°31'0 0.0
2014-Sep-26 18:29N 54°02' E 007°31'0 0.0
2014-Sep-26 17:29N 54°02' E 007°31'0 0.0
2014-Sep-26 16:32N 54°02' E 007°31'0 0.1
2014-Sep-26 15:29N 54°02' E 007°31'0 0.0
2014-Sep-26 14:32N 54°02' E 007°31'0 0.1
2014-Sep-26 13:23N 54°02' E 007°31'0 0.1
2014-Sep-26 12:23N 54°02' E 007°31'0 0.0
2014-Sep-26 11:26N 54°02' E 007°31'0 0.0
2014-Sep-26 10:26N 54°02' E 007°31'0 0.0
2014-Sep-26 09:29N 54°02' E 007°31'0 0.0
2014-Sep-26 08:32N 54°02' E 007°31'0 0.0
2014-Sep-26 07:29N 54°02' E 007°31'0 0.1
2014-Sep-26 06:29N 54°02' E 007°31'0 0.1
2014-Sep-26 05:26N 54°02' E 007°31'0 0.0
2014-Sep-26 04:29N 54°02' E 007°31'0 0.1
2014-Sep-26 03:26N 54°02' E 007°31'0 0.0
2014-Sep-26 02:32N 54°02' E 007°31'0 0.0
2014-Sep-26 01:32N 54°02' E 007°31'0 0.1
2014-Sep-26 00:23N 54°02' E 007°31'0 0.0
2014-Sep-25 23:32N 54°02' E 007°31'0 0.0
2014-Sep-25 22:32N 54°02' E 007°31'0 0.0
2014-Sep-25 21:32N 54°02' E 007°31'0 0.0
2014-Sep-25 20:29N 54°02' E 007°31'0 0.0
2014-Sep-25 19:29N 54°02' E 007°31'0 0.0
2014-Sep-25 18:29N 54°02' E 007°31'0 0.0
2014-Sep-25 17:32N 54°02' E 007°31'0 0.0
2014-Sep-25 16:26N 54°02' E 007°31'0 0.0
2014-Sep-25 15:17N 54°02' E 007°31'0 0.0
2014-Sep-25 14:32N 54°02' E 007°31'0 0.0
2014-Sep-25 13:32N 54°02' E 007°31'0 0.1
2014-Sep-25 12:29N 54°02' E 007°31'0 0.1
2014-Sep-25 11:32N 54°02' E 007°31'0 0.1
2014-Sep-25 10:32N 54°02' E 007°31'0 0.0
2014-Sep-25 09:32N 54°02' E 007°31'0 0.0
2014-Sep-25 08:26N 54°02' E 007°31'0 0.1
2014-Sep-25 07:29N 54°02' E 007°31'0 0.0
2014-Sep-25 06:32N 54°02' E 007°31'0 0.0
2014-Sep-25 05:32N 54°02' E 007°31'0 0.0
2014-Sep-25 04:23N 54°02' E 007°31'0 0.0
2014-Sep-25 03:29N 54°02' E 007°31'0 0.0
2014-Sep-25 02:26N 54°02' E 007°31'0 0.1
2014-Sep-25 01:29N 54°02' E 007°31'0 0.0
2014-Sep-25 00:29N 54°02' E 007°31'0 0.0
2014-Sep-24 23:29N 54°02' E 007°31'0 0.0
2014-Sep-24 22:29N 54°02' E 007°31'0 0.0
2014-Sep-24 21:26N 54°02' E 007°31'0 0.0
2014-Sep-24 20:32N 54°02' E 007°31'0 0.0
2014-Sep-24 19:26N 54°02' E 007°31'0 0.0
2014-Sep-24 18:26N 54°02' E 007°31'0 0.1
2014-Sep-24 17:29N 54°02' E 007°31'0 0.2
2014-Sep-24 16:29N 54°02' E 007°31'0 0.1
2014-Sep-24 15:26N 54°02' E 007°31'0 0.0
2014-Sep-24 14:32N 54°02' E 007°31'0 0.0
2014-Sep-24 13:17N 54°02' E 007°31'0 0.1
2014-Sep-24 12:29N 54°02' E 007°31'0 0.0
2014-Sep-24 11:32N 54°02' E 007°31'0 0.0
2014-Sep-24 10:17N 54°02' E 007°31'0 0.0
2014-Sep-24 09:26N 54°02' E 007°31'0 0.0
2014-Sep-24 08:26N 54°02' E 007°31'0 0.0
2014-Sep-24 07:29N 54°02' E 007°31'0 0.0
2014-Sep-24 06:29N 54°02' E 007°31'0 0.0
2014-Sep-24 05:23N 54°02' E 007°31'0 0.1
2014-Sep-24 04:32N 54°02' E 007°31'0 0.0
2014-Sep-24 03:32N 54°02' E 007°31'0 0.0
2014-Sep-24 02:20N 54°02' E 007°31'0 0.0
2014-Sep-24 01:32N 54°02' E 007°31'0 0.0
2014-Sep-24 00:29N 54°02' E 007°31'0 0.0
2014-Sep-23 23:20N 54°02' E 007°31'0 0.0
2014-Sep-23 22:29N 54°02' E 007°31'0 0.0
2014-Sep-23 21:29N 54°02' E 007°31'0 0.0
2014-Sep-23 20:32N 54°02' E 007°31'0 0.0
2014-Sep-23 19:26N 54°02' E 007°31'0 0.0
2014-Sep-23 18:32N 54°02' E 007°31'0 0.0
2014-Sep-23 17:29N 54°02' E 007°31'0 0.0
2014-Sep-23 16:32N 54°02' E 007°31'0 0.1
2014-Sep-23 15:32N 54°02' E 007°31'0 0.1
2014-Sep-23 14:32N 54°02' E 007°31'0 0.0
2014-Sep-23 13:29N 54°02' E 007°31'0 0.1
2014-Sep-23 11:26N 54°02' E 007°31'0 0.1
2014-Sep-23 10:29N 54°02' E 007°31'0 0.1
2014-Sep-23 09:32N 54°02' E 007°31'0 0.0
2014-Sep-23 08:32N 54°02' E 007°31'0 0.0
2014-Sep-23 07:20N 54°02' E 007°31'0 0.0
2014-Sep-23 06:26N 54°02' E 007°31'0 0.1
2014-Sep-23 05:32N 54°02' E 007°31'0 0.1
2014-Sep-23 04:23N 54°02' E 007°31'0 0.1
2014-Sep-23 03:29N 54°02' E 007°31'0 0.0
2014-Sep-23 02:26N 54°02' E 007°31'0 0.0
2014-Sep-23 01:32N 54°02' E 007°31'0 0.1
2014-Sep-23 00:29N 54°02' E 007°31'0 0.0
2014-Sep-22 23:32N 54°02' E 007°31'0 0.0
2014-Sep-22 22:26N 54°02' E 007°31'0 0.0
2014-Sep-22 21:29N 54°02' E 007°31'  

Dump ship's entire track history